Location: Shenandoah County Park
(38.9356°N, 78.4524°W)
Time: 01:43:31
(UTC-05:00)

Altair - All Passes

Search period start: 06 February 2023 00:00
Search period end: 16 February 2023 00:00
Orbit: 1501 x 1683 km, 47.2° (Epoch: 05 February)

Date Brightness Start Highest point End Pass type
(mag) Time Alt. Az. Time Alt. Az. Time Alt. Az.
06 Feb - 01:05:25 10° WNW 01:15:26 71° SW 01:25:31 10° SE night (unlit)
06 Feb - 03:11:57 10° W 03:19:04 22° SW 03:26:10 10° S night (unlit)
06 Feb - 16:22:00 10° S 16:29:24 27° SE 16:37:00 10° ENE daylight
06 Feb - 18:23:35 10° SW 18:33:06 82° SE 18:43:03 10° ENE visible
06 Feb - 20:29:01 10° W 20:38:34 57° N 20:48:27 10° ENE visible
06 Feb - 22:35:03 10° WNW 22:44:51 59° NNE 22:54:52 10° E visible
07 Feb - 00:40:10 10° WNW 00:50:14 76° SW 01:00:22 10° SE night (unlit)
07 Feb - 02:46:24 10° WNW 02:53:58 25° SW 03:01:32 10° S night (unlit)
07 Feb - 15:57:20 10° S 16:04:20 24° SE 16:11:30 10° ENE daylight
07 Feb - 17:58:28 10° SW 18:07:55 77° SE 18:17:48 10° ENE visible
07 Feb - 20:03:43 10° W 20:13:15 58° NNW 20:23:08 10° ENE visible
07 Feb - 22:09:47 10° WNW 22:19:31 58° NNE 22:29:30 10° E visible
08 Feb - 00:14:56 10° WNW 00:25:00 80° SW 00:35:11 10° SE visible
08 Feb - 02:20:55 10° WNW 02:28:52 27° SW 02:36:50 10° S night (unlit)
08 Feb - 15:32:45 10° S 15:39:17 21° SE 15:45:58 10° E daylight
08 Feb - 17:33:21 10° SW 17:42:44 73° SE 17:52:32 10° ENE daylight
08 Feb - 19:38:26 10° W 19:47:56 59° NNW 19:57:50 10° ENE visible
08 Feb - 21:44:31 10° WNW 21:54:12 56° N 22:04:08 10° E visible
08 Feb - 23:49:43 10° WNW 23:59:47 85° SSW 00:10:00 10° SE visible
09 Feb - 01:55:29 10° WNW 02:03:45 30° SW 02:12:05 10° S night (unlit)
09 Feb - 15:08:15 10° SSE 15:14:14 19° SE 15:20:20 10° E daylight
09 Feb - 17:08:17 10° SW 17:17:33 68° SE 17:27:16 10° ENE daylight
09 Feb - 19:13:09 10° W 19:22:39 61° NNW 19:32:32 10° ENE visible
09 Feb - 21:19:15 10° WNW 21:28:52 55° N 21:38:46 10° E visible
09 Feb - 23:24:29 10° WNW 23:34:33 89° SSW 23:44:46 10° ESE visible
10 Feb - 01:30:04 10° WNW 01:38:39 33° SW 01:47:16 10° S night (unlit)
10 Feb - 14:43:53 10° SSE 14:49:12 17° ESE 14:54:37 10° E daylight
10 Feb - 16:43:13 10° SW 16:52:25 63° SE 17:02:00 10° ENE daylight
10 Feb - 18:47:53 10° W 18:57:21 63° NNW 19:07:14 10° ENE visible
10 Feb - 20:53:59 10° WNW 21:03:32 54° N 21:13:24 10° E visible
10 Feb - 22:59:16 10° WNW 23:09:18 87° NNE 23:19:31 10° ESE visible
11 Feb - 01:04:42 10° WNW 01:13:31 36° SW 01:22:24 10° SSE night (unlit)
11 Feb - 14:19:40 10° SSE 14:24:10 15° ESE 14:28:43 10° E daylight
11 Feb - 16:18:11 10° SW 16:27:15 58° SE 16:36:43 10° ENE daylight
11 Feb - 18:22:37 10° WSW 18:32:04 66° NNW 18:41:57 10° ENE visible
11 Feb - 20:28:42 10° WNW 20:38:13 54° N 20:48:01 10° E visible
11 Feb - 22:34:03 10° WNW 22:44:03 83° NNE 22:54:15 10° ESE visible
12 Feb - 00:39:22 10° WNW 00:48:23 39° SW 00:57:29 10° SSE night (unlit)
12 Feb - 13:55:45 10° SE 13:59:09 12° ESE 14:02:34 10° E daylight
12 Feb - 15:53:11 10° SSW 16:02:07 54° SE 16:11:26 10° ENE daylight
12 Feb - 17:57:22 10° WSW 18:06:48 68° NNW 18:16:40 10° ENE visible
12 Feb - 20:03:26 10° WNW 20:12:53 53° N 20:22:40 10° E visible
12 Feb - 22:08:50 10° WNW 22:18:47 79° NNE 22:28:59 10° ESE visible
13 Feb - 00:14:03 10° WNW 00:23:15 43° SW 00:32:34 10° SSE visible
13 Feb - 13:32:41 10° SE 13:34:07 10° ESE 13:35:35 10° ESE daylight
13 Feb - 15:28:12 10° SSW 15:37:00 50° SE 15:46:08 10° ENE daylight
13 Feb - 17:32:07 10° WSW 17:41:33 71° NNW 17:51:23 10° ENE daylight
13 Feb - 19:38:10 10° WNW 19:47:33 53° N 19:57:18 10° ENE visible
13 Feb - 21:43:38 10° WNW 21:53:32 76° NNE 22:03:41 10° ESE visible
13 Feb - 23:48:45 10° WNW 23:58:06 46° SW 00:07:35 10° SSE visible
14 Feb - 15:03:16 10° SSW 15:11:54 46° SE 15:20:50 10° ENE daylight
14 Feb - 17:06:53 10° WSW 17:16:17 74° NNW 17:26:08 10° ENE daylight
14 Feb - 19:12:53 10° WNW 19:22:14 53° N 19:31:56 10° ENE visible
14 Feb - 21:18:25 10° WNW 21:28:16 72° NNE 21:38:22 10° ESE visible
14 Feb - 23:23:29 10° WNW 23:32:56 50° SW 23:42:34 10° SSE visible
15 Feb - 01:33:03 10° WSW 01:36:05 12° WSW 01:39:07 10° SW night (unlit)
15 Feb - 14:38:21 10° SSW 14:46:48 42° SE 14:55:31 10° ENE daylight
15 Feb - 16:41:40 10° WSW 16:51:04 78° NNW 17:00:52 10° ENE daylight
15 Feb - 18:47:36 10° WNW 18:56:54 53° N 19:06:35 10° ENE visible
15 Feb - 20:53:12 10° WNW 21:02:59 69° NNE 21:13:04 10° ESE visible
15 Feb - 22:58:13 10° WNW 23:07:47 54° SW 23:17:32 10° SSE visible
